Flag for U.S.A. Weather past 2 weeks in Cleveland, Tennessee, U.S.A.

Now
82 °F

Scattered clouds.


Feels Like: 83 °F
Forecast: 62 / 82 °F
Wind: 9 mph from North

Location: Lovell Field

Current Time: Aug 27, 2015 at 4:10:01 PM

Latest Report: Aug 27, 2015 at 2:53 PM


Visibility: 10 mi

Pressure: 30.04 "Hg

Humidity: 53%

Dew point: 63 °F

Location of ClevelandLocation

Historic Weather in Cleveland — Graph

°F

Cleveland temperature yesterday

Maximum temperature yesterday: 82 °F (at 4:53 PM)
Minimum temperature yesterday: 60 °F (at 4:53 AM)
Average temperature yesterday: 71 °F

Past Weeks' High & Low Weather Summary

 TemperatureHumidityPressure
High89 °F (Aug 13, 4:53 PM)97% (Aug 17, 12:53 PM)30.19 "Hg (Aug 17, 12:53 PM)
Low60 °F (Aug 26, 4:53 AM)35% (Aug 12, 3:53 PM)29.87 "Hg (Aug 19, 4:53 PM)
Average76 °F73%30.03 "Hg
* Reported Aug 12 2:53 PM — Aug 27 2:53 PM, Cleveland, Weather by CustomWeather, © 2015

Note: Actual official high and low records may vary slightly from our data, if they occured in-between our weather recording intervals... More about our weather records

Advertising

Cleveland weather history for previous 24 hours

 ConditionsComfort  
Time TempWeatherWind HumidityBarometerVisibility
2:53 PM
Thu, Aug 27
82 °FScattered clouds.9 mph53%30.04 "Hg10 mi
1:53 PM80 °FScattered clouds.7 mph56%30.06 "Hg10 mi
12:53 PM77 °FScattered clouds.10 mph60%30.07 "Hg10 mi
11:53 AM75 °FPassing clouds.10 mph60%30.08 "Hg10 mi
10:53 AM72 °FScattered clouds.5 mph64%30.08 "Hg10 mi
9:53 AM71 °FScattered clouds.10 mph63%30.08 "Hg10 mi
8:53 AM67 °FScattered clouds.13 mph71%30.07 "Hg10 mi
7:53 AM66 °FPassing clouds.8 mph73%30.06 "Hg10 mi
6:53 AM66 °FPassing clouds.7 mph70%30.05 "Hg10 mi
5:53 AM66 °FPassing clouds.9 mph70%30.03 "Hg10 mi
4:53 AM66 °FClear.10 mph73%30.02 "Hg10 mi
3:53 AM67 °FClear.9 mph71%30.02 "Hg10 mi
2:53 AM67 °FClear.8 mph71%30.02 "Hg10 mi
1:53 AM67 °FClear.10 mph71%30.03 "Hg10 mi
12:53 AM68 °FClear.5 mph70%30.05 "Hg10 mi
11:53 PM
Wed, Aug 26
70 °FClear.6 mph64%30.06 "Hg10 mi
10:53 PM71 °FPassing clouds.9 mph63%30.05 "Hg10 mi
9:53 PM72 °FClear.9 mph64%30.03 "Hg10 mi
8:53 PM73 °FPassing clouds.5 mph62%30.01 "Hg10 mi
7:53 PM77 °FPassing clouds.8 mph50%30.00 "Hg10 mi
6:53 PM80 °FScattered clouds.8 mph45%30.00 "Hg10 mi
5:53 PM82 °FScattered clouds.12 mph44%30.00 "Hg10 mi
4:53 PM82 °FScattered clouds.13 mph43%30.01 "Hg10 mi
Weather by CustomWeather, © 2015

See weather overviewHow to use our weather pages